Kelso-Longview, WA
on Monday, February 11, 2013

Monday
Previous Day Next Day
Daily Summary
 ActualAverage (KSPB)Record (KSPB)
Temperature
Mean Temperature °F °F  
Max Temperature 46°F °F 60°F (2003)
Min Temperature 41°F °F 28°F (2002)
Degree Days
Heating Degree Days 22    
Month to date heating degree days  
Since 1 July heating degree days  
Cooling Degree Days 0    
Month to date cooling degree days  
Year to date cooling degree days  
Moisture
Dew Point 37°F   
Average Humidity 81    
Maximum Humidity 93    
Minimum Humidity 70    
Precipitation
Precipitation 0.02 in in 0.43 in (2014)
Month to date precipitation  
Year to date precipitation  
Wind
Wind Speed 2 mph   
Max Wind Speed 10 mph   
Max Gust Speed mph   
Visibility 9 miles   
Events     

Key: T is trace of precipitation, MM is missing value
Source: NWS Daily Summary
Time(PST)TemperatureDew PointHumidity Pressure Visibility Wind DirectionWind SpeedGust SpeedPrecipitationEvents Conditions
12:15 AM 42.8°F 35.6°F 76% 30.34 in 10.0 miles Calm Calm - N/A   Overcast
12:35 AM 42.8°F 35.6°F 76% 30.34 in 10.0 miles Calm Calm - N/A   Overcast
12:55 AM 41.0°F 35.6°F 81% 30.34 in 10.0 miles Calm Calm - N/A   Overcast
1:15 AM 41.0°F 35.6°F 81% 30.35 in 10.0 miles NNW 3.5 mph - N/A   Overcast
1:35 AM 42.8°F 35.6°F 76% 30.35 in 10.0 miles Calm Calm - N/A   Overcast
1:55 AM 42.8°F 33.8°F 70% 30.35 in 10.0 miles North 3.5 mph - N/A   Overcast
2:15 AM 42.8°F 35.6°F 76% 30.35 in 10.0 miles NNW 4.6 mph - N/A   Overcast
2:35 AM 42.8°F 35.6°F 76% 30.35 in 10.0 miles Calm Calm - N/A   Overcast
2:55 AM 42.8°F 35.6°F 76% 30.35 in 10.0 miles NNW 3.5 mph - N/A   Overcast
3:15 AM 42.8°F 35.6°F 76% 30.34 in 10.0 miles Calm Calm - N/A   Overcast
3:55 AM 41.0°F 35.6°F 81% 30.35 in 10.0 miles Calm Calm - N/A   Overcast
4:15 AM 41.0°F 35.6°F 81% 30.35 in 10.0 miles Calm Calm - N/A   Overcast
4:35 AM 42.8°F 35.6°F 76% 30.35 in 10.0 miles Calm Calm - N/A   Overcast
4:55 AM 41.0°F 35.6°F 81% 30.35 in 10.0 miles Calm Calm - N/A   Overcast
5:15 AM 41.0°F 35.6°F 81% 30.36 in 10.0 miles Calm Calm - N/A   Overcast
5:35 AM 41.0°F 35.6°F 81% 30.36 in 10.0 miles Calm Calm - N/A   Overcast
5:55 AM 41.0°F 35.6°F 81% 30.36 in 10.0 miles Calm Calm - N/A   Overcast
6:15 AM 41.0°F 35.6°F 81% 30.35 in 10.0 miles Calm Calm - N/A   Overcast
6:35 AM 41.0°F 35.6°F 81% 30.36 in 10.0 miles Calm Calm - N/A   Overcast
6:55 AM 41.0°F 35.6°F 81% 30.36 in 9.0 miles Calm Calm - N/A   Overcast
7:15 AM 41.0°F 35.6°F 81% 30.36 in 9.0 miles Calm Calm - N/A   Overcast
7:35 AM 41.0°F 35.6°F 81% 30.36 in 8.0 miles Calm Calm - N/A   Overcast
7:55 AM 41.0°F 35.6°F 81% 30.37 in 10.0 miles Calm Calm - N/A   Overcast
8:15 AM 41.0°F 35.6°F 81% 30.37 in 10.0 miles Calm Calm - N/A   Overcast
8:35 AM 42.8°F 35.6°F 76% 30.37 in 10.0 miles Calm Calm - N/A   Overcast
8:55 AM 42.8°F 35.6°F 76% 30.38 in 10.0 miles Calm Calm - N/A   Overcast
9:15 AM 42.8°F 35.6°F 76% 30.38 in 10.0 miles Calm Calm - N/A   Overcast
9:35 AM 42.8°F 35.6°F 76% 30.38 in 10.0 miles Calm Calm - N/A   Overcast
9:55 AM 44.6°F 37.4°F 76% 30.39 in 10.0 miles Calm Calm - N/A   Overcast
10:15 AM 44.6°F 37.4°F 76% 30.39 in 10.0 miles Calm Calm - N/A   Overcast
10:35 AM 44.6°F 37.4°F 76% 30.39 in 10.0 miles Calm Calm - N/A   Overcast
10:55 AM 44.6°F 37.4°F 76% 30.39 in 10.0 miles Calm Calm - N/A   Overcast
11:15 AM 44.6°F 37.4°F 76% 30.39 in 10.0 miles Calm Calm - N/A   Overcast
11:35 AM 44.6°F 37.4°F 76% 30.39 in 10.0 miles Calm Calm - N/A   Overcast
11:55 AM 44.6°F 37.4°F 76% 30.38 in 10.0 miles Calm Calm - N/A   Overcast
12:15 PM 46.4°F 37.4°F 71% 30.38 in 10.0 miles Calm Calm - N/A   Overcast
12:35 PM 46.4°F 37.4°F 71% 30.37 in 10.0 miles Calm Calm - N/A   Overcast
12:55 PM 46.4°F 37.4°F 71% 30.37 in 10.0 miles Calm Calm - N/A   Overcast
1:15 PM 46.4°F 37.4°F 71% 30.37 in 10.0 miles South 5.8 mph - N/A   Overcast
1:35 PM 46.4°F 37.4°F 71% 30.37 in 10.0 miles SSE 4.6 mph - N/A   Overcast
1:55 PM 44.6°F 39.2°F 81% 30.37 in 10.0 miles South 10.4 mph - N/A   Overcast
2:55 PM 44.6°F 39.2°F 81% 30.37 in 9.0 miles SSE 8.1 mph - N/A   Overcast
3:15 PM 44.6°F 39.2°F 81% 30.36 in 10.0 miles SE 6.9 mph - N/A   Overcast
3:35 PM 44.6°F 39.2°F 81% 30.36 in 10.0 miles SSE 10.4 mph - N/A   Overcast
3:55 PM 44.6°F 39.2°F 81% 30.37 in 10.0 miles SSE 8.1 mph - N/A   Overcast
4:15 PM 44.6°F 39.2°F 81% 30.37 in 10.0 miles SSE 8.1 mph - N/A   Overcast
4:35 PM 44.6°F 39.2°F 81% 30.37 in 10.0 miles SSE 8.1 mph - N/A   Overcast
4:55 PM 44.6°F 39.2°F 81% 30.37 in 5.0 miles SSE 5.8 mph - N/A   Overcast
5:15 PM 44.6°F 39.2°F 81% 30.37 in 2.5 miles SE 6.9 mph - N/A   Overcast
5:35 PM 44.6°F 41.0°F 87% 30.37 in 3.0 miles SE 6.9 mph - N/A   Overcast
5:55 PM 44.6°F 39.2°F 81% 30.37 in 4.0 miles SE 6.9 mph - N/A   Overcast
6:15 PM 42.8°F 41.0°F 93% 30.37 in 4.0 miles SE 4.6 mph - N/A   Overcast
6:35 PM 42.8°F 41.0°F 93% 30.37 in 4.0 miles SE 4.6 mph - 0.01 in   Overcast
6:55 PM 42.8°F 39.2°F 87% 30.37 in 5.0 miles SSE 6.9 mph - 0.01 in   Overcast
7:15 PM 42.8°F 39.2°F 87% 30.37 in 5.0 miles SSE 6.9 mph - N/A   Overcast
7:35 PM 42.8°F 39.2°F 87% 30.38 in 3.0 miles SE 4.6 mph - N/A   Overcast
8:15 PM 42.8°F 39.2°F 87% 30.37 in 3.0 miles SE 5.8 mph - N/A   Overcast
8:35 PM 42.8°F 39.2°F 87% 30.37 in 4.0 miles SE 4.6 mph - N/A   Overcast
8:55 PM 42.8°F 39.2°F 87% 30.37 in 6.0 miles SE 6.9 mph - N/A   Overcast
9:15 PM 42.8°F 39.2°F 87% 30.38 in 7.0 miles SE 4.6 mph - N/A   Overcast
9:35 PM 42.8°F 39.2°F 87% 30.37 in 8.0 miles SE 5.8 mph - N/A   Overcast
9:55 PM 42.8°F 39.2°F 87% 30.37 in 10.0 miles SE 6.9 mph - N/A   Overcast
10:15 PM 42.8°F 39.2°F 87% 30.38 in 10.0 miles SE 6.9 mph - N/A   Overcast
10:35 PM 42.8°F 39.2°F 87% 30.38 in 10.0 miles SE 5.8 mph - N/A   Overcast
10:55 PM 42.8°F 39.2°F 87% 30.38 in 8.0 miles SSE 6.9 mph - N/A   Overcast
11:15 PM 42.8°F 39.2°F 87% 30.39 in 10.0 miles SSE 5.8 mph - N/A   Overcast
11:35 PM 42.8°F 39.2°F 87% 30.39 in 3.0 miles SE 5.8 mph - 0.01 in   Overcast
11:55 PM 42.8°F 41.0°F 93% 30.39 in 3.0 miles SSE 5.8 mph - 0.01 in   Overcast
Moon Phase
Feb. 11 Feb. 17 Feb. 25 Mar. 04 Mar. 11
Sunrise:07:20 AM (PST) Moon Rise:07:39 AM (PST)2/11
Sunset:05:32 PM (PST) Moon Set:07:45 PM (PST)2/11

Copyright © 2014 The Weather Underground, Inc.